Pueblo, CO

3:29 AM MST on January 22, 2017 (GMT -0700)
Pueblo Memorial

Weather History for KPUB - June, 2013

Change the Weather History Date:

Monday, June 10, 2013

  Actual Average Record
Temperature  
Mean Temperature 79 °F 68 °F  
Max Temperature 103 °F 85 °F 103 °F (2013)
Min Temperature 55 °F 51 °F 36 °F (1998)
Degree Days  
Heating Degree Days 0 1  
Month to date heating degree days 17 16  
Since 1 June heating degree days 17 16  
Since 1 July heating degree days 5724 5629  
Cooling Degree Days 14 4  
Month to date cooling degree days 46 34  
Year to date cooling degree days 119 68  
Since 1 June cooling degree days 46 34  
Growing Degree Days 28 (Base 50)    
Moisture  
Dew Point 28 °F    
Average Humidity 28    
Maximum Humidity 51    
Minimum Humidity 5    
Precipitation  
Precipitation 0.00 in 0.04 in 0.78 in (1895)
Month to date precipitation 0.24 0.47  
Year to date precipitation 2.17 4.96  
Snow  
Snow 0.00 in 0.00 in 0.00 in (2002)
Month to date snowfall T 0.0  
Since 1 June snowfall T 0.0  
Since 1 July snowfall 24.4 31.8  
Snow Depth 0.00 in    
Sea Level Pressure  
Sea Level Pressure 29.69 in    
Wind  
Wind Speed 7 mph (West)    
Max Wind Speed 22 mph    
Max Gust Speed 26 mph    
Visibility 10 miles    
Events      
T = Trace of Precipitation, MM = Missing Value Source: NWS Daily Summary

Daily Weather History Graph

Daily Weather History Graph

Search for Another Location

Airport or City:

Trip Planner

Search our weather history database for the weather conditions in past years. The results will help you decide how hot, cold, wet, or windy it might be!

Date:

Astronomy

Jun. 10, 2013 Rise Set
Actual Time 5:34 AM MDT 8:21 PM MDT
Civil Twilight 5:02 AM MDT 8:52 PM MDT
Nautical Twilight 4:23 AM MDT 9:32 PM MDT
Astronomical Twilight 3:38 AM MDT 10:17 PM MDT
Moon 7:23 AM MDT (6/10) 9:51 PM MDT (6/10)
Length of Visible Light 15h 50m
Length of Day
14h 47m
Waxing Crescent, 4% of the Moon is Illuminated
Jun 10
Waxing Crescent
Jun 16
First Quarter
Jun 23
Full
Jun 29
Last Quarter
Jul 8
New

Hourly Weather History & Observations

Time (MDT) Temp. Dew Point Humidity Pressure Visibility Wind Dir Wind Speed Gust Speed Precip Events Conditions
12:53 AM 66.0 °F 34.0 °F 30% 29.79 in 10.0 mi North 10.4 mph - N/A   Clear
1:53 AM 66.0 °F 34.0 °F 30% 29.76 in 10.0 mi North 11.5 mph - N/A   Clear
2:53 AM 60.1 °F 39.9 °F 47% 29.76 in 10.0 mi West 4.6 mph - N/A   Clear
3:53 AM 57.9 °F 37.9 °F 47% 29.76 in 10.0 mi NW 6.9 mph - N/A   Clear
4:53 AM 59.0 °F 36.0 °F 42% 29.76 in 10.0 mi WSW 5.8 mph - N/A   Clear
5:53 AM 55.0 °F 37.9 °F 53% 29.78 in 10.0 mi West 8.1 mph - N/A   Clear
6:53 AM 62.1 °F 37.9 °F 41% 29.77 in 10.0 mi West 4.6 mph - N/A   Clear
7:53 AM 69.1 °F 35.1 °F 29% 29.77 in 10.0 mi West 5.8 mph - N/A   Clear
8:53 AM 79.0 °F 37.0 °F 22% 29.76 in 10.0 mi West 6.9 mph - N/A   Clear
9:53 AM 90.0 °F 33.1 °F 13% 29.74 in 10.0 mi West 11.5 mph - N/A   Clear
10:53 AM 93.9 °F 28.9 °F 10% 29.73 in 10.0 mi SW 6.9 mph - N/A   Clear
11:53 AM 96.1 °F 23.0 °F 7% 29.72 in 10.0 mi SW 8.1 mph - N/A   Clear
12:53 PM 99.0 °F 19.0 °F 6% 29.68 in 10.0 mi SE 5.8 mph - N/A   Clear
1:53 PM 100.9 °F 17.1 °F 5% 29.65 in 10.0 mi Variable 6.9 mph 18.4 mph N/A   Clear
2:53 PM 102.0 °F 18.0 °F 5% 29.64 in 10.0 mi ESE 8.1 mph 19.6 mph N/A   Clear
3:53 PM 102.0 °F 19.0 °F 5% 29.62 in 10.0 mi SE 10.4 mph - N/A   Clear
4:53 PM 102.0 °F 19.9 °F 5% 29.60 in 10.0 mi South 11.5 mph - N/A   Clear
5:53 PM 100.0 °F 19.0 °F 5% 29.60 in 10.0 mi South 9.2 mph - N/A   Clear
6:44 PM 98.6 °F 21.2 °F 6% 29.82 in 10.0 mi NW 15.0 mph 23.0 mph N/A   Clear
6:53 PM 100.0 °F 19.9 °F 6% 29.61 in 10.0 mi NW 5.8 mph - N/A   Clear
7:53 PM 93.9 °F 25.0 °F 8% 29.60 in 10.0 mi North 4.6 mph - N/A   Clear
8:53 PM 84.9 °F 24.1 °F 11% 29.61 in 10.0 mi North - - N/A   Clear
9:53 PM 81.0 °F 28.9 °F 15% 29.62 in 10.0 mi Calm Calm - N/A   Clear
10:53 PM 84.9 °F 28.9 °F 13% 29.62 in 10.0 mi West 10.4 mph - N/A   Clear
11:53 PM 75.9 °F 28.9 °F 18% 29.62 in 10.0 mi NNW 9.2 mph - N/A   Clear